RH
98 95 97 98 96 96 98 90 55 35 40 50 51 53 91 47 93 62 76 73 71 74 68 60 56 50 36 54 33 34 26 25 68 97 98 92 98 97 99 98 98 97 98
100 98 99 96 97 96 98 100 97 60 40 43 48 53 60 87 94 76 86 72 76 73 72 66 58 57 59 52 78 74 48 35 28 99 100 98 99 96 91 96 98 97 98
79 82 96 96 89 95 97 99 99 98 72 51 45 47 47 72 59 96 96 95 71 63 62 75 63 45 50 64 73 77 66 43 30 72 100 96 98 98 98 97 98 95 99
100 92 89 97 73 40 70 90 99 97 98 84 61 57 75 84 50 70 77 96 95 98 97 99 73 61 60 56 66 62 56 63 50 36 78 94 98 97 100 98 97 95 74
100 98 95 66 83 47 24 22 18 30 58 89 80 67 59 62 100 56 98 98 97 78 74 92 86 97 63 56 56 56 48 55 55 47 37 23 96 97 95 100 100 94 63
99 91 86 92 73 52 59 89 91 36 13 33 71 81 75 64 66 89 58 96 97 97 100 78 85 96 98 80 57 46 35 49 48 49 23 21 25 68 98 97 97 82 40
98 97 90 90 88 92 46 35 80 83 24 11 25 62 80 82 72 67 75 57 99 96 100 89 98 80 80 89 94 50 41 40 39 33 29 14 18 22 44 57 46 69 24
98 94 71 41 32 36 51 65 29 26 23 16 11 14 35 67 97 86 78 73 73 98 96 94 79 98 88 99 89 100 79 55 60 44 41 14 12 11 9 11 12 17 14
100 78 54 46 41 47 54 56 59 46 38 38 27 21 19 53 92 92 82 100 99 95 98 99 95 67 54 74 97 100 81 100 95 49 52 16 13 12 8 8 8 10 11
99 95 74 51 42 40 57 77 83 88 75 71 100 77 53 34 70 93 100 91 85 99 100 100 95 82 86 98 100 94 88 77 84 80 78 53 28 19 10 7 7 8 8
100 100 94 72 61 58 68 82 87 95 100 99 100 100 100 100 85 71 91 100 93 81 79 87 64 93 99 97 96 95 100 100 99 99 99 75 58 60 64 21 9 8 9
100 100 100 100 100 100 95 92 100 100 100 100 100 100 100 100 95 98 100 99 94 100 100 92 84 93 100 96 99 96 100 98 99 96 99 73 68 59 95 98 86 62 51
100 100 100 100 100 99 97 100 100 100 100 100 100 100 100 96 100 100 99 100 95 100 100 100 99 100 100 100 100 100 100 100 100 100 99 82 100 97 75 90 87 92 99
100 98 98 98 95 92 89 89 94 99 100 100 100 100 100 100 100 100 100 100 100 100 100 97 100 100 99 100 100 100 100 100 100 100 100 100 100 100 93 73 58 45 57
100 98 100 84 75 71 69 72 77 82 82 85 92 97 100 100 100 100 100 100 100 100 100 98 100 100 100 100 100 100 100 100 100 100 100 100 100 98 99 96 99 97 98
100 93 87 77 76 65 57 54 59 65 67 72 79 90 91 92 98 100 100 100 100 100 100 100 100 100 100 100 100 100 100 100 100 100 100 100 95 100 100 100 100 100 88
99 100 92 74 80 75 58 50 43 52 52 47 44 44 39 50 66 86 95 99 100 100 100 100 100 100 100 100 100 100 100 100 100 100 100 100 100 100 100 100 98 98 100
100 100 100 100 100 98 92 80 64 42 37 32 27 30 24 22 18 20 37 71 89 97 99 100 100 100 100 100 100 100 100 100 100 100 100 100 100 100 100 100 100 100 100
100 98 97 100 97 87 82 74 69 65 61 45 35 28 25 22 20 18 16 15 16 40 75 96 99 100 100 100 100 100 100 100 100 100 100 100 100 100 100 100 100 99 98
97 94 91 85 76 72 68 64 58 53 49 44 38 33 28 24 24 24 32 30 24 16 15 27 66 93 98 100 100 100 100 100 99 97 98 100 100 100 100 100 100 100 100
92 84 78 72 66 63 56 46 42 37 37 35 34 31 28 27 25 25 27 30 36 36 31 25 20 38 65 89 100 100 98 98 100 100 100 100 100 100 100 100 98 99 100
20 18 16 15 15 14 13 12 12 12 11 10 10 9 9 9 9 10 11 14 17 26 33 31 34 32 35 47 58 74 90 95 94 95 97 99 100 100 100 100 100 100 100
19 18 18 18 17 17 17 18 17 15 14 13 11 11 11 10 9 9 8 7 7 8 9 13 20 24 25 25 27 36 42 44 53 70 87 96 100 100 100 100 100 100 100
25 24 24 24 24 23 22 24 24 23 20 18 15 14 13 13 12 11 10 9 8 8 8 8 8 9 12 17 21 23 25 27 28 29 30 36 62 84 93 97 100 100 100
31 30 28 28 30 31 30 31 28 26 25 24 21 20 18 18 18 15 12 11 11 10 9 9 8 8 8 8 9 11 15 19 22 24 24 25 28 32 44 66 80 92 98
35 35 35 36 38 38 34 33 32 30 30 30 29 28 26 26 24 22 15 14 14 14 13 12 11 10 9 9 9 9 9 10 10 12 15 19 23 26 30 34 40 51 63
Wind_Speed
52 54 53 56 59 63 63 61 61 59 58 57 56 53 57 52 51 56 57 51 51 49 49 48 47 45 44 45 43 42 40 39 39 44 31 37 43 48 38 37 43 39 43
48 51 54 57 56 56 56 57 60 61 59 57 57 55 53 54 58 52 65 56 52 53 52 52 53 49 48 48 44 44 43 43 46 44 46 40 44 45 42 48 50 43 39
40 44 47 46 50 53 55 54 55 57 58 60 59 58 57 59 56 53 61 53 50 54 55 59 57 56 54 52 50 48 47 49 50 49 47 51 47 47 44 47 46 48 46
55 49 47 53 54 53 53 54 59 60 58 59 60 59 65 55 58 61 64 52 70 54 49 50 56 60 59 56 55 54 53 53 55 57 62 57 48 50 49 52 51 49 52
46 47 48 39 53 53 51 52 55 58 61 62 62 63 64 64 65 66 55 68 62 59 63 57 53 63 64 60 61 60 58 58 58 59 62 63 57 54 55 58 54 53 52
40 35 35 43 43 43 48 61 53 56 61 65 66 66 66 67 66 69 64 72 61 61 69 64 67 61 58 63 64 64 64 61 62 63 64 65 70 67 68 58 52 54 54
32 31 33 36 39 46 45 52 59 59 59 62 65 68 69 70 69 70 70 70 71 70 71 73 69 68 74 62 60 67 67 64 66 65 67 67 69 72 77 79 64 62 58
28 32 36 37 38 42 45 47 47 54 59 62 66 69 72 73 73 71 69 72 77 75 76 73 68 60 66 74 71 65 66 70 76 70 68 69 69 71 71 70 65 60 61
30 34 36 37 37 38 41 44 44 47 51 55 60 66 71 74 75 75 74 73 72 70 73 70 64 71 76 78 72 66 69 71 71 71 71 69 69 70 69 68 68 66 65
35 36 36 36 37 38 40 43 44 45 48 52 54 57 60 69 73 77 77 81 87 79 67 66 75 78 80 77 65 73 73 79 72 73 77 73 69 68 70 70 69 68 66
33 34 35 35 36 36 37 40 44 45 46 48 54 57 61 67 67 72 77 79 84 85 89 87 88 78 73 74 74 78 78 75 85 83 79 77 77 77 76 69 70 70 67
27 30 33 34 36 37 38 39 39 41 43 45 48 52 61 62 61 75 76 78 79 83 91 92 88 88 79 80 81 89 85 86 84 85 88 83 83 78 82 80 79 80 75
29 31 32 32 33 36 39 40 41 42 43 44 46 48 51 53 61 65 66 71 78 81 84 88 85 91 93 84 87 80 82 82 92 84 86 89 86 82 84 84 82 82 83
29 29 30 31 34 35 37 39 42 45 46 45 44 41 44 48 54 59 65 66 71 72 79 77 83 91 97 89 88 86 80 80 72 81 88 91 88 89 89 87 85 84 80
34 35 35 33 32 32 33 35 37 39 43 45 47 48 47 45 45 48 54 65 70 70 80 79 82 83 87 88 91 91 88 77 80 77 81 86 92 92 94 93 84 88 85
35 36 37 37 37 36 38 38 38 39 39 41 41 42 46 50 52 50 50 50 64 74 78 76 82 87 77 88 86 85 92 102 86 92 91 85 89 84 85 82 86 85 78
41 42 42 41 40 42 42 43 45 47 49 49 49 48 49 47 47 50 53 55 55 55 63 78 80 77 84 81 92 92 85 88 89 83 90 79 78 76 80 83 82 82 85
44 46 49 50 50 49 51 51 52 53 55 56 56 58 59 57 55 54 54 54 56 58 60 60 62 70 78 81 83 84 84 87 94 95 94 93 90 90 90 89 86 81 81
44 46 48 49 49 51 53 54 57 60 61 62 64 65 66 67 67 67 66 65 63 61 62 64 65 66 66 68 74 81 87 88 87 88 88 87 88 86 88 88 92 91 92
43 45 47 50 52 54 56 59 62 65 68 70 72 73 74 76 77 76 73 72 72 74 73 69 69 69 69 70 71 71 71 75 80 85 90 93 94 94 95 95 92 91 92
40 43 46 48 50 52 53 55 57 59 62 65 69 72 75 79 81 85 85 83 79 77 78 77 76 75 74 73 73 75 76 75 74 73 74 75 79 83 87 90 93 94 95
30 32 34 36 38 39 41 43 45 46 48 51 54 56 60 63 66 70 74 79 81 84 86 84 82 81 81 78 77 77 77 78 79 79 78 77 77 78 79 80 81 84 87
30 32 33 32 33 32 33 34 35 36 38 40 43 48 51 55 58 62 68 73 77 78 78 80 84 89 92 91 88 86 84 83 82 81 81 82 83 83 82 81 80 81 82
25 25 25 24 24 25 26 28 31 32 35 36 38 39 41 43 46 51 57 63 70 76 80 82 83 84 85 88 91 94 95 92 90 89 88 87 86 87 87 88 87 87 85
22 22 22 23 25 26 27 27 30 32 34 36 37 38 39 41 43 44 47 51 56 62 69 76 81 84 85 87 87 89 90 93 95 97 98 96 94 93 92 90 90 90 90
22 23 25 25 25 27 29 29 32 34 35 36 37 39 40 41 43 43 43 46 47 51 56 59 64 70 74 78 83 85 87 89 90 94 95 97 99 100 97 96 96 95 94
Wind_Direction
254 248 243 243 239 236 234 235 236 235 235 235 237 236 233 238 226 246 241 239 243 243 244 244 244 243 242 240 238 239 238 228 224 227 233 237 236 245 232 236 227 242 243
253 247 248 242 241 237 235 234 235 235 235 234 236 236 236 226 239 244 245 236 240 242 244 244 243 242 240 240 238 237 234 238 230 233 236 244 247 237 237 235 232 238 231
245 248 248 238 244 241 239 235 236 237 237 235 233 235 233 237 234 237 222 234 239 246 244 246 242 244 243 241 238 239 238 236 231 229 229 229 231 233 233 234 228 233 239
244 241 243 237 233 237 241 241 239 235 235 235 235 231 235 235 236 235 242 235 248 232 246 247 252 247 242 244 246 242 240 238 235 230 233 245 238 231 236 233 241 243 248
247 245 243 242 236 233 235 233 236 238 237 235 234 233 234 230 236 237 235 243 240 244 241 240 253 251 242 242 242 245 245 241 240 238 238 241 231 238 232 233 239 243 246
248 239 245 240 240 245 242 239 236 239 236 234 233 234 235 234 233 237 237 241 235 242 243 242 236 245 250 249 245 241 244 244 242 242 241 239 237 237 237 234 238 244 248
248 249 251 248 249 244 243 239 239 241 239 235 234 233 234 236 235 237 235 242 241 248 241 248 240 240 249 250 242 245 245 246 245 244 244 240 240 241 241 251 255 245 246
250 248 247 246 245 244 243 241 240 239 238 236 235 234 234 235 235 236 237 234 243 238 249 241 240 237 249 242 252 240 245 248 244 245 244 243 242 243 245 248 249 245 245
243 245 248 248 247 245 244 244 242 239 238 237 236 236 235 235 236 235 234 234 238 241 234 229 246 246 247 248 240 249 243 240 250 246 246 244 244 244 245 246 247 246 246
249 248 251 250 248 246 244 243 244 245 243 239 238 238 238 238 237 237 237 233 236 240 245 243 249 248 250 240 242 244 247 249 247 244 244 244 243 244 245 246 247 247 249
248 246 250 252 250 247 246 246 245 246 245 244 242 241 243 242 239 239 238 240 240 239 239 244 246 246 239 240 242 249 244 248 242 247 245 245 245 245 247 247 246 247 247
244 241 243 245 248 252 253 253 255 254 254 250 247 245 244 247 248 239 242 243 242 244 243 241 244 241 247 246 248 246 247 245 250 253 248 248 245 246 247 251 244 244 248
250 249 251 253 253 253 253 252 254 254 253 254 253 253 251 254 248 247 245 243 246 248 246 249 237 237 241 242 241 247 247 243 250 250 250 244 245 250 251 251 251 251 249
249 258 257 260 265 264 263 261 259 259 258 255 252 252 250 251 250 247 242 241 245 246 247 251 246 247 245 243 246 246 245 244 246 254 251 249 245 248 251 252 252 250 251
257 259 258 263 264 266 268 268 268 268 268 269 268 263 261 256 252 251 250 244 243 246 244 250 246 249 244 247 247 244 247 250 248 251 249 255 253 258 251 248 256 253 250
249 254 256 259 263 266 268 269 270 270 271 272 273 272 270 266 260 256 253 251 247 246 244 245 244 245 249 247 244 247 251 250 254 253 256 252 249 248 249 256 252 254 251
250 255 257 258 260 263 265 267 268 267 269 271 272 271 274 273 274 269 262 258 254 251 250 249 248 247 246 248 249 249 249 251 250 250 249 250 251 252 252 249 248 254 252
255 256 260 263 266 266 266 267 268 268 269 269 269 269 271 272 273 274 273 270 266 261 256 253 251 251 252 251 250 249 248 248 248 250 254 256 254 253 258 254 253 255 255
263 265 267 267 266 266 266 267 267 267 268 268 269 269 268 269 269 272 273 273 272 268 266 263 258 254 251 250 250 251 251 249 249 249 249 251 252 252 254 255 256 258 257
263 264 266 268 269 270 270 270 270 270 271 271 271 272 271 271 271 270 269 268 268 270 269 264 262 260 258 256 254 253 250 249 250 252 253 252 253 253 254 255 256 256 256
269 269 269 270 271 271 271 272 273 273 273 274 274 273 272 271 268 268 268 268 265 261 261 261 260 259 256 256 256 256 256 255 254 252 251 251 252 252 253 254 254 255 256
271 272 273 273 274 276 277 277 277 279 278 278 277 275 273 271 269 268 267 266 265 263 260 258 256 255 256 255 255 255 255 255 255 255 255 254 253 253 252 252 254 254 254
277 279 280 281 280 280 282 284 285 286 287 288 287 285 282 279 275 271 267 264 263 261 260 258 257 257 257 255 255 255 254 254 254 255 255 255 255 255 254 255 255 255 256
283 283 285 286 287 286 284 287 290 292 293 294 294 298 296 294 289 281 274 268 263 260 258 257 256 255 254 253 253 254 254 255 255 256 255 255 254 255 255 256 256 257 257
288 288 288 289 290 291 293 296 298 299 301 301 302 304 307 306 304 298 288 280 272 265 261 258 255 254 253 252 252 252 251 252 253 254 255 255 255 254 255 255 255 255 256
286 287 289 290 291 294 298 302 302 304 305 306 307 309 311 313 311 310 301 291 282 272 265 262 259 257 255 255 253 252 251 251 250 250 250 251 253 254 254 255 255 255 256